Stations météo

Publicité
Cherbourg, France (7024): Température de l'air & dewpoint: 20.03.2017 09:00:00 - 26.03.2017 09:00:00 (CEST)Cherbourg, France (7024): Température de l'air 5cm: 20.03.2017 09:00:00 - 26.03.2017 09:00:00 (CEST)Cherbourg, France (7024): Température de l'air -20cm & Température de l'air -100cm: 20.03.2017 09:00:00 - 26.03.2017 09:00:00 (CEST)Cherbourg, France (7024): Vitesse du vent & gusts: 20.03.2017 09:00:00 - 26.03.2017 09:00:00 (CEST)Cherbourg, France (7024): Direction du vent: 20.03.2017 09:00:00 - 26.03.2017 09:00:00 (CEST)Cherbourg, France (7024): reduced air pressure: 20.03.2017 09:00:00 - 26.03.2017 09:00:00 (CEST)Cherbourg, France (7024): visibility: 20.03.2017 09:00:00 - 26.03.2017 09:00:00 (CEST)Cherbourg, France (7024): Ensoleillement: 20.03.2017 09:00:00 - 26.03.2017 09:00:00 (CEST)Cherbourg, France (7024): Quantités de précipitations: 20.03.2017 09:00:00 - 26.03.2017 09:00:00 (CEST)
Date & Time tt [°C] td [°C] tt 5cm [°C] tt -20cm [°C] tt -100cm [°C] ff [km/h] ff [knt] fx [km/h] fx [knt] dd ppp [hPa] vv [km] sd [min] rr [mm]
26.03.2017 09:00:00 7,7 4,3 5,7 8,6 9,0 20 11 32 17 ENE 1020,0 17 29 0,0
26.03.2017 08:00:00 6,6 3,7 5,1 8,6 9,0 21 11 29 16 ENE 1019,5 16 0 0,0
26.03.2017 07:00:00 7,1 3,5 5,8 8,6 9,0 21 11 35 19 ENE 1019,3 18 0 0,0
26.03.2017 06:00:00 7,4 3,6 6,1 8,7 9,0 21 12 43 23 ENE 1019,6 18 0 0,0
26.03.2017 05:00:00 7,9 4,3 6,8 8,7 9,0 29 16 55 30 NE 1019,8 15 0 0,0
26.03.2017 04:00:00 8,0 4,2 6,7 8,8 9,0 29 16 54 29 NE 1019,9 15 0 0,0
26.03.2017 03:00:00 8,0 4,8 7,0 8,8 9,0 29 16 48 26 NE 1020,2 13 0 0,0
26.03.2017 02:00:00 8,0 4,9 7,0 8,8 9,0 30 16 50 27 NE 1020,5 13 0 0,0
26.03.2017 01:00:00 8,1 5,0 6,9 8,8 9,0 30 16 50 27 NE 1020,8 13 0 0,0
26.03.2017 00:00:00 8,2 4,4 6,8 8,9 9,0 31 17 54 29 NE 1021,1 14 0 0,0
25.03.2017 23:00:00 8,2 3,8 7,0 8,9 9,0 29 16 64 35 NE 1021,4 15 0 0,0
25.03.2017 22:00:00 8,4 3,2 7,1 8,9 9,0 31 17 58 31 NE 1021,4 17 0 0,0
25.03.2017 21:00:00 8,6 3,0 7,5 8,9 9,0 35 19 66 36 NE 1020,9 18 0 0,0
25.03.2017 20:00:00 8,8 3,2 8,6 8,9 9,0 36 19 69 38 NNE 1020,4 17 51 0,0
25.03.2017 19:00:00 9,6 3,8 11,3 8,9 9,0 36 19 72 39 NNE 1020,8 18 60 0,0
25.03.2017 18:00:00 10,0 4,1 12,1 8,8 9,0 44 24 71 38 NE 1021,4 17 60 0,0
25.03.2017 17:00:00 10,4 4,7 13,6 8,7 9,0 38 20 67 36 NNE 1022,0 13 60 0,0
25.03.2017 16:00:00 10,2 5,8 14,0 8,6 9,0 42 23 68 37 NNE 1022,9 11 60 0,0
25.03.2017 15:00:00 10,0 6,2 13,9 8,5 9,0 41 22 67 36 NNE 1023,8 7 60 0,0
25.03.2017 14:00:00 10,6 7,3 13,6 8,5 9,0 32 17 69 38 NE 1024,5 7 60 0,0
25.03.2017 13:00:00 10,1 6,8 13,5 8,4 9,0 36 20 62 34 NE 1025,2 7 60 0,0
25.03.2017 12:00:00 9,9 6,4 12,2 8,4 9,0 37 20 60 33 NE 1025,2 6 60 0,0
25.03.2017 11:00:00 9,6 5,9 11,1 8,4 9,0 34 18 58 32 NE 1025,3 8 60 0,0
25.03.2017 10:00:00 8,8 6,6 8,7 8,5 9,0 31 17 49 27 NE 1026,1 6 60 0,0
25.03.2017 09:00:00 8,1 6,6 6,8 8,5 9,0 29 16 50 27 NE 1026,3 4,3 8 0,0
25.03.2017 08:00:00 7,6 6,1 6,5 8,5 9,0 26 14 45 24 NE 1026,5 4,4 0 0,0
25.03.2017 07:00:00 7,6 5,9 6,6 8,5 9,0 25 13 43 23 NE 1026,6 4,6 0 0,0
25.03.2017 06:00:00 7,7 6,2 6,8 8,5 9,0 22 12 42 23 ENE 1026,6 4,4 0 0,0
25.03.2017 05:00:00 8,0 6,6 7,2 8,6 9,0 27 14 49 27 NE 1026,5 4,1 0 0,0
25.03.2017 04:00:00 8,0 6,8 7,0 8,6 9,0 30 16 56 30 NE 1026,6 4,4 0 0,0
25.03.2017 03:00:00 7,7 6,6 7,0 8,6 9,0 31 17 50 27 NE 1027,3 4,4 0 0,0
25.03.2017 02:00:00 7,7 6,6 7,0 8,6 9,0 29 16 51 27 NE 1027,5 3,9 0 0,0
25.03.2017 01:00:00 7,8 6,9 7,1 8,6 9,0 26 14 54 29 NE 1027,7 3,3 0 0,0
25.03.2017 00:00:00 7,9 6,8 7,0 8,6 9,0 28 15 50 27 NE 1027,7 3,4 0 0,0
24.03.2017 23:00:00 7,7 6,5 7,0 8,6 9,0 29 15 51 28 NE 1027,9 3,7 0 0,0
24.03.2017 22:00:00 8,0 6,1 7,4 8,6 9,0 35 19 61 33 NE 1028,0 6 0 0,0
24.03.2017 21:00:00 8,4 6,5 7,6 8,6 9,0 30 16 52 28 NE 1027,2 4,9 0 0,0
24.03.2017 20:00:00 8,4 6,9 8,0 8,6 9,0 28 15 44 24 NE 1026,9 3,9 31 0,0
24.03.2017 19:00:00 8,7 7,8 9,0 8,5 9,0 23 13 39 21 NE 1026,2 1,9 0 0,0
24.03.2017 18:00:00 8,8 7,6 9,2 8,5 9,0 23 12 40 21 ENE 1026,1 2,1 7 0,0
24.03.2017 17:00:00 8,8 7,4 9,8 8,5 9,0 29 16 44 24 NE 1025,9 2,2 9 0,0
24.03.2017 16:00:00 9,4 8,2 8,7 8,4 9,0 23 12 40 21 NE 1025,7 2,5 2 0,0
24.03.2017 15:00:00 8,4 7,3 9,1 8,4 9,0 22 12 40 22 NE 1026,0 2,1 0 0,0
24.03.2017 14:00:00 8,3 7,9 8,7 8,4 9,0 24 13 45 25 NE 1025,6 1,4 0 0,0
24.03.2017 13:00:00 8,3 7,7 8,6 8,4 9,0 21 12 34 18 NE 1025,3 1,5 0 0,0
24.03.2017 12:00:00 8,6 7,7 8,5 8,4 9,1 13 7 23 12 NE 1024,8 3,8 0 0,0
24.03.2017 11:00:00 8,4 6,9 9,4 8,4 9,1 11 6 18 10 NE 1024,1 20 7 0,0
24.03.2017 10:00:00 7,6 7,2 6,5 8,4 9,0 9 5 16 9 NNE 1023,6 17 2 0,0
24.03.2017 09:00:00 6,6 6,2 4,9 8,4 9,0 7 4 17 9 ENE 1022,7 12 8 0,0
24.03.2017 08:00:00 6,7 6,4 5,2 8,4 9,0 9 5 19 10 NE 1022,0 9 0 0,0
24.03.2017 07:00:00 6,3 6,0 5,4 8,4 9,1 12 6 17 9 NE 1020,9 6 0 0,2
24.03.2017 06:00:00 6,3 5,7 5,5 8,5 9,1 9 5 16 9 NNE 1020,5 16 0 0,0
24.03.2017 05:00:00 6,8 6,2 6,5 8,5 9,1 11 6 25 14 E 1019,8 7 0 0,0
24.03.2017 04:00:00 7,0 6,6 6,6 8,5 9,1 15 8 26 14 ENE 1019,3 3,6 0 1,0
24.03.2017 03:00:00 7,0 6,6 6,7 8,5 9,0 15 8 24 13 E 1019,0 3,5 0 4,3
24.03.2017 02:00:00 7,1 6,7 6,7 8,5 9,1 13 7 23 12 E 1018,0 2,3 0 2,4
24.03.2017 01:00:00 7,0 6,6 6,7 8,5 9,1 16 9 25 13 E 1016,6 2,8 0 1,6
24.03.2017 00:00:00 7,2 6,8 6,8 8,5 9,1 12 7 40 21 ESE 1015,6 4,3 0 0,8
23.03.2017 23:00:00 8,4 8,0 7,8 8,5 9,1 30 16 53 29 ENE 1014,1 1,8 0 4,2
23.03.2017 22:00:00 8,4 7,3 7,6 8,5 9,1 32 18 62 34 ENE 1013,1 2,9 0 2,3
23.03.2017 21:00:00 8,1 7,2 7,5 8,5 9,1 31 17 54 29 NE 1012,2 3,2 0 2,2
23.03.2017 20:00:00 7,9 7,3 6,9 8,5 9,1 21 11 35 19 ENE 1012,1 1,9 0 1,6
23.03.2017 19:00:00 7,1 6,4 6,7 8,5 9,1 11 6 20 11 ENE 1011,8 2,0 0 0,6
23.03.2017 18:00:00 7,0 6,3 6,7 8,5 9,1 12 6 29 16 E 1011,3 3,8 0 1,2
23.03.2017 17:00:00 7,4 6,3 6,8 8,5 9,1 18 10 42 23 E 1010,7 6 0 0,0
23.03.2017 16:00:00 7,3 5,6 6,9 8,5 9,1 29 16 46 25 ENE 1010,3 8 0 0,2
23.03.2017 15:00:00 7,0 5,9 5,9 8,5 9,1 25 14 53 29 NE 1010,2 8 0 0,2
23.03.2017 14:00:00 6,8 4,8 5,9 8,5 9,1 29 16 51 28 NE 1010,7 20 0 0,6
23.03.2017 13:00:00 6,3 4,8 5,9 8,5 9,1 27 15 45 24 ENE 1010,6 7 0 0,6
23.03.2017 12:00:00 7,1 6,5 7,0 8,5 9,1 16 9 31 17 NE 1010,1 7 0 0,4
23.03.2017 11:00:00 7,1 6,4 6,6 8,6 9,1 14 7 20 11 NE 1009,7 5 0 0,6
23.03.2017 10:00:00 6,7 6,0 5,6 8,6 9,1 9 5 16 9 ENE 1009,6 7 0 0,0
23.03.2017 09:00:00 5,8 5,1 4,6 8,6 9,1 7 4 10 6 NE 1009,3 18 0 0,2
23.03.2017 08:00:00 5,9 5,2 4,7 8,6 9,1 10 5 16 9 NE 1009,2 4,3 0 1,4
23.03.2017 07:00:00 5,5 4,3 4,7 8,7 9,1 6 3 20 11 NNE 1008,9 60 0 0,0
23.03.2017 06:00:00 5,6 3,9 4,5 8,7 9,1 12 6 22 12 N 1008,7 60 0 0,0
23.03.2017 05:00:00 4,8 3,5 4,1 8,8 9,1 11 6 20 11 N 1009,1 60 0 0,0
23.03.2017 04:00:00 4,7 4,0 4,0 8,8 9,1 9 5 16 8 ENE 1009,4 46 0 0,0
23.03.2017 03:00:00 4,5 3,6 3,6 8,9 9,1 6 3 23 12 NE 1009,7 17 0 2,6
23.03.2017 02:00:00 4,7 3,5 3,5 8,9 9,1 16 9 32 17 ENE 1009,4 4,0 0 1,8
23.03.2017 01:00:00 5,9 4,9 2,3 8,9 9,1 7 4 10 6 NE 1008,8 16 0 0,0
23.03.2017 00:00:00 5,7 4,2 2,9 8,9 9,1 6 3 10 5 NNE 1009,0 52 0 0,0
22.03.2017 23:00:00 5,2 3,7 0,7 9,0 9,1 6 4 10 6 NE 1008,7 59 0 0,0
22.03.2017 22:00:00 5,2 3,2 2,2 9,0 9,1 6 3 11 6 NE 1008,4 57 0 0,0
22.03.2017 21:00:00 5,7 3,4 2,7 8,9 9,1 8 4 16 8 NNE 1008,0 56 0 0,0
22.03.2017 20:00:00 7,4 3,3 8,1 8,9 9,1 10 6 19 10 NNE 1007,3 60 46 0,0
22.03.2017 19:00:00 8,9 3,7 11,0 8,8 9,1 9 5 16 9 N 1006,8 60 60 0,0
22.03.2017 18:00:00 9,8 2,2 11,6 8,7 9,1 5 3 16 9 S 1006,3 60 33 0,0
22.03.2017 17:00:00 9,5 1,4 11,4 8,6 9,1 6 4 22 12 SSW 1006,3 60 23 0,0
22.03.2017 16:00:00 9,7 3,4 10,4 8,5 9,1 10 6 27 15 SSW 1006,1 60 29 0,0
22.03.2017 15:00:00 9,5 3,5 11,0 8,5 9,1 14 7 28 15 S 1006,0 60 41 0,0
22.03.2017 14:00:00 9,1 4,3 10,0 8,4 9,1 19 11 32 17 S 1005,8 60 24 0,0
22.03.2017 13:00:00 8,3 5,4 8,2 8,4 9,1 18 10 30 16 S 1005,3 60 24 0,0
22.03.2017 12:00:00 6,1 5,2 4,7 8,4 9,1 14 8 31 17 S 1005,0 60 9 0,6
22.03.2017 11:00:00 5,0 3,7 4,2 8,5 9,1 22 12 44 24 S 1004,6 7 0 1,6
22.03.2017 10:00:00 5,5 4,1 4,9 8,5 9,1 24 13 38 20 SSE 1003,4 51 0 0,0
22.03.2017 09:00:00 5,4 4,2 4,8 8,5 9,1 26 14 51 28 SSE 1003,0 19 0 0,0
22.03.2017 08:00:00 5,4 4,0 4,6 8,6 9,1 30 16 57 31 SSE 1002,8 16 0 0,0
22.03.2017 07:00:00 5,1 4,1 3,9 8,7 9,1 30 16 51 28 SSE 1002,7 13 0 1,8
22.03.2017 06:00:00 4,8 3,0 3,9 8,7 9,1 24 13 45 25 SE 1003,8 13 0 0,2
22.03.2017 05:00:00 5,1 2,3 3,9 8,8 9,1 28 15 44 24 SE 1004,8 51 0 0,0
22.03.2017 04:00:00 4,5 1,7 3,0 8,9 9,1 22 12 36 19 SE 1006,0 49 0 0,0
22.03.2017 03:00:00 4,0 1,0 2,8 8,9 9,1 16 9 29 15 SE 1007,4 49 0 0,0
22.03.2017 02:00:00 4,3 1,3 2,9 9,0 9,1 15 8 26 14 SE 1008,7 43 0 0,0
22.03.2017 01:00:00 4,9 1,6 3,8 9,0 9,1 19 10 32 17 SSE 1009,9 43 0 0,0
22.03.2017 00:00:00 5,0 1,1 3,8 9,1 9,1 20 11 34 19 SSE 1010,2 40 0 0,0
21.03.2017 23:00:00 5,1 0,5 2,5 9,2 9,1 16 9 26 14 SSE 1011,1 42 0 0,0
21.03.2017 22:00:00 4,7 0,5 0,8 9,2 9,1 11 6 19 10 SE 1011,6 55 0 0,0
21.03.2017 21:00:00 5,0 0,6 2,4 9,2 9,1 9 5 16 9 SE 1011,8 33 0 0,0
21.03.2017 20:00:00 7,2 -0,3 7,0 9,2 9,1 13 7 31 17 S 1012,3 60 45 0,0
21.03.2017 19:00:00 8,1 0,6 8,9 9,1 9,1 22 12 38 21 SSW 1012,4 56 60 0,0
21.03.2017 18:00:00 9,4 0,8 8,7 9,1 9,1 24 13 42 23 SW 1012,7 60 36 0,0
21.03.2017 17:00:00 9,7 1,8 10,5 9,0 9,1 27 14 44 24 SW 1013,1 19 32 0,0
21.03.2017 16:00:00 9,7 2,5 10,3 9,0 9,1 26 14 43 23 SW 1013,6 10 39 0,0
21.03.2017 15:00:00 9,6 1,2 10,4 8,9 9,1 24 13 44 24 WSW 1013,9 60 28 0,0
21.03.2017 14:00:00 9,2 1,4 9,9 8,9 9,1 24 13 44 24 WSW 1014,1 50 40 0,0
21.03.2017 13:00:00 8,4 1,3 7,8 8,9 9,1 23 13 34 18 W 1014,2 20 39 0,0
21.03.2017 12:00:00 8,2 1,8 9,4 9,0 9,1 26 14 39 21 W 1014,2 20 48 0,0
21.03.2017 11:00:00 7,4 1,9 7,2 9,0 9,1 16 9 35 19 WSW 1013,8 19 20 0,0
21.03.2017 10:00:00 6,5 1,4 5,3 9,1 9,1 21 12 36 19 WSW 1012,8 50 4 0,0
21.03.2017 09:00:00 6,3 1,0 5,2 9,1 9,1 19 10 38 21 W 1012,6 47 0 0,0
21.03.2017 08:00:00 6,4 1,7 4,9 9,2 9,1 21 12 42 23 W 1012,2 47 0 0,0
21.03.2017 07:00:00 6,6 2,9 4,8 9,3 9,1 27 15 44 24 W 1011,7 46 0 0,2
21.03.2017 06:00:00 6,9 3,1 5,7 9,4 9,1 29 16 44 24 W 1011,1 52 0 0,0
21.03.2017 05:00:00 6,7 4,2 5,7 9,4 9,1 23 12 41 22 W 1010,7 52 0 0,0
21.03.2017 04:00:00 6,9 5,2 5,7 9,4 9,1 26 14 47 26 WSW 1010,5 55 0 0,0
21.03.2017 03:00:00 7,2 6,0 6,5 9,5 9,1 35 19 55 30 WSW 1010,0 4,2 0 0,6
21.03.2017 02:00:00 8,2 6,8 7,4 9,5 9,1 29 16 45 24 WSW 1009,5 41 0 0,0
21.03.2017 01:00:00 8,3 6,9 7,2 9,5 9,1 29 16 49 27 WSW 1009,3 48 0 0,0
21.03.2017 00:00:00 8,7 7,3 7,9 9,5 9,0 32 17 45 25 WSW 1009,2 50 0 0,0
20.03.2017 23:00:00 8,8 7,7 7,8 9,6 9,1 31 17 46 25 SW 1009,0 37 0 0,0
20.03.2017 22:00:00 8,6 7,2 7,7 9,6 9,1 34 18 50 27 SW 1008,6 52 0 0,0
20.03.2017 21:00:00 9,1 7,5 8,6 9,6 9,0 34 19 51 28 WSW 1008,3 20 0 0,0
20.03.2017 20:00:00 10,0 9,1 9,6 9,6 9,1 34 18 61 33 WSW 1007,7 17 0 0,2
20.03.2017 19:00:00 10,5 9,7 9,9 9,5 9,1 40 22 65 35 SW 1007,2 4,6 0 0,2
20.03.2017 18:00:00 10,4 9,6 10,2 9,5 9,0 34 18 65 35 SSW 1007,0 3,4 22 0,2
20.03.2017 17:00:00 12,0 8,5 12,6 9,5 9,1 39 21 66 36 SW 1007,1 20 24 0,0
20.03.2017 16:00:00 11,2 8,8 10,4 9,4 9,0 34 19 55 30 SW 1007,7 15 0 0,0
20.03.2017 15:00:00 10,8 8,4 10,7 9,4 9,0 29 16 58 31 SSW 1008,0 12 0 0,0
20.03.2017 14:00:00 11,0 7,7 11,4 9,4 9,0 35 19 58 32 SSW 1008,5 57 0 0,0
20.03.2017 13:00:00 11,0 7,7 11,3 9,4 9,0 34 18 54 29 SSW 1008,7 20 0 0,0
20.03.2017 12:00:00 10,5 7,4 10,3 9,4 9,1 41 22 63 34 SSW 1009,0 46 0 0,0
20.03.2017 11:00:00 10,1 8,2 9,6 9,4 9,0 35 19 54 29 SSW 1009,2 18 0 0,0
20.03.2017 10:00:00 9,7 8,5 9,0 9,4 9,0 30 16 49 26 SSW 1009,5 12 0 0,0
20.03.2017 09:00:00 - - - - - - - - - - - - - -

tt = Température de l'air
td = dewpoint
tt 5cm = Température de l'air 5cm
tt -20cm = Température de l'air -20cm
tt -100cm = Température de l'air -100cm
ff = Vitesse du vent
fx = gusts
dd = Direction du vent
ppp = reduced air pressure
vv = visibility
sd = Ensoleillement
rr = Quantités de précipitations

stations d'obs. à proximité